Time,TemperatureF,DewpointF,PressureIn,WindDirection,WindDirectionDegrees,WindSpeedMPH,WindSpeedGustMPH,Humidity,HourlyPrecipIn,Conditions,Clouds,dailyrainin,SoftwareType,DateUTC
2013-02-17 00:00:00,29.5,26.4,29.65,WNW,295,2.0,2.0,88,0.00,,,0.00,Wunderground v.1.15,2013-02-17 05:00:00,
2013-02-17 00:01:00,29.5,26.4,29.65,NNE,22,2.0,9.0,88,0.00,,,0.00,Wunderground v.1.15,2013-02-17 05:01:00,
2013-02-17 00:03:00,29.5,26.4,29.65,WNW,297,2.0,9.0,88,0.00,,,0.00,Wunderground v.1.15,2013-02-17 05:03:00,
2013-02-17 00:04:00,29.5,26.4,29.65,NNE,30,2.0,9.0,88,0.00,,,0.00,Wunderground v.1.15,2013-02-17 05:04:00,
2013-02-17 00:09:00,29.5,26.1,29.65,NW,319,2.0,9.0,87,0.00,,,0.00,Wunderground v.1.15,2013-02-17 05:09:00,
2013-02-17 00:15:00,29.4,26.0,29.66,North,5,2.0,9.0,87,0.00,,,0.00,Wunderground v.1.15,2013-02-17 05:15:00,
2013-02-17 00:20:00,29.4,26.0,29.66,NW,319,3.0,9.0,87,0.00,,,0.00,Wunderground v.1.15,2013-02-17 05:20:00,
2013-02-17 00:25:00,29.3,26.2,29.65,North,11,2.0,9.0,88,0.00,,,0.00,Wunderground v.1.15,2013-02-17 05:25:00,
2013-02-17 00:30:00,29.3,25.9,29.65,NNE,20,2.0,2.0,87,0.00,,,0.00,Wunderground v.1.15,2013-02-17 05:30:00,
2013-02-17 00:36:00,29.3,25.9,29.65,West,271,2.0,9.0,87,0.00,,,0.00,Wunderground v.1.15,2013-02-17 05:36:00,
2013-02-17 00:41:00,29.3,25.6,29.65,NE,43,3.0,4.0,86,0.00,,,0.00,Wunderground v.1.15,2013-02-17 05:41:00,
2013-02-17 00:46:00,29.3,25.6,29.65,ENE,61,3.0,9.0,86,0.00,,,0.00,Wunderground v.1.15,2013-02-17 05:46:00,
2013-02-17 00:51:00,29.2,25.5,29.64,NE,51,2.0,3.0,86,0.00,,,0.00,Wunderground v.1.15,2013-02-17 05:51:00,
2013-02-17 00:56:00,29.0,25.6,29.64,NE,46,2.0,9.0,87,0.00,,,0.00,Wunderground v.1.15,2013-02-17 05:56:00,
2013-02-17 01:02:00,28.9,25.5,29.63,NNW,329,3.0,9.0,87,0.00,,,0.00,Wunderground v.1.15,2013-02-17 06:02:00,
2013-02-17 01:07:00,28.7,25.3,29.62,NNE,26,4.0,9.0,87,0.00,,,0.00,Wunderground v.1.15,2013-02-17 06:07:00,
2013-02-17 01:12:00,28.5,25.4,29.62,NE,51,4.0,9.0,88,0.00,,,0.00,Wunderground v.1.15,2013-02-17 06:12:00,
2013-02-17 01:17:00,28.4,25.3,29.61,NNE,22,4.0,9.0,88,0.00,,,0.00,Wunderground v.1.15,2013-02-17 06:17:00,
2013-02-17 01:23:00,28.2,25.4,29.61,North,8,3.0,9.0,89,0.00,,,0.00,Wunderground v.1.15,2013-02-17 06:23:00,
2013-02-17 01:28:00,28.1,25.5,29.61,North,6,3.0,9.0,90,0.00,,,0.00,Wunderground v.1.15,2013-02-17 06:28:00,
2013-02-17 01:34:00,28.0,25.4,29.61,NNW,339,4.0,9.0,90,0.00,,,0.00,Wunderground v.1.15,2013-02-17 06:34:00,
2013-02-17 01:39:00,27.8,25.5,29.61,NNE,32,4.0,9.0,91,0.00,,,0.00,Wunderground v.1.15,2013-02-17 06:39:00,
2013-02-17 01:44:00,27.7,25.4,29.61,NNW,343,4.0,9.0,91,0.00,,,0.00,Wunderground v.1.15,2013-02-17 06:44:00,
2013-02-17 01:49:00,27.5,25.2,29.62,NNW,345,4.0,9.0,91,0.00,,,0.00,Wunderground v.1.15,2013-02-17 06:49:00,
2013-02-17 01:55:00,27.4,25.4,29.61,NNW,332,4.0,9.0,92,0.00,,,0.00,Wunderground v.1.15,2013-02-17 06:55:00,
2013-02-17 02:01:00,27.3,25.3,29.62,North,1,3.0,6.0,92,0.00,,,0.00,Wunderground v.1.15,2013-02-17 07:01:00,
2013-02-17 02:06:00,27.3,25.5,29.61,ENE,63,2.0,9.0,93,0.00,,,0.00,Wunderground v.1.15,2013-02-17 07:06:00,
2013-02-17 02:11:00,27.3,25.5,29.61,North,8,3.0,7.0,93,0.00,,,0.00,Wunderground v.1.15,2013-02-17 07:11:00,
2013-02-17 02:17:00,27.0,25.2,29.61,NNE,28,5.0,10.0,93,0.00,,,0.00,Wunderground v.1.15,2013-02-17 07:17:00,
2013-02-17 02:23:00,26.8,25.0,29.60,NE,35,5.0,9.0,93,0.00,,,0.00,Wunderground v.1.15,2013-02-17 07:23:00,
2013-02-17 02:28:00,26.7,24.9,29.59,NW,319,5.0,9.0,93,0.00,,,0.00,Wunderground v.1.15,2013-02-17 07:28:00,
2013-02-17 02:34:00,26.6,24.8,29.58,NNW,341,4.0,9.0,93,0.00,,,0.00,Wunderground v.1.15,2013-02-17 07:34:00,
2013-02-17 02:40:00,26.5,24.8,29.57,NNE,25,5.0,9.0,93,0.00,,,0.00,Wunderground v.1.15,2013-02-17 07:40:00,
2013-02-17 02:46:00,26.5,24.8,29.57,SW,232,6.0,10.0,93,0.00,,,0.00,Wunderground v.1.15,2013-02-17 07:46:00,
2013-02-17 02:51:00,26.4,24.7,29.56,NE,39,5.0,9.0,93,0.00,,,0.00,Wunderground v.1.15,2013-02-17 07:51:00,
2013-02-17 02:57:00,26.5,24.8,29.56,NNW,347,5.0,12.0,93,0.00,,,0.00,Wunderground v.1.15,2013-02-17 07:57:00,
2013-02-17 03:03:00,26.2,24.2,29.57,NNW,337,5.0,9.0,92,0.00,,,0.00,Wunderground v.1.15,2013-02-17 08:03:00,
2013-02-17 03:09:00,25.9,23.9,29.57,NNW,335,6.0,9.0,92,0.00,,,0.00,Wunderground v.1.15,2013-02-17 08:09:00,
2013-02-17 03:15:00,25.7,23.4,29.57,NNE,19,7.0,16.0,91,0.00,,,0.00,Wunderground v.1.15,2013-02-17 08:15:00,
2013-02-17 03:20:00,25.6,23.3,29.57,North,4,6.0,9.0,91,0.00,,,0.00,Wunderground v.1.15,2013-02-17 08:20:00,
2013-02-17 03:25:00,25.5,23.2,29.57,NNW,345,4.0,9.0,91,0.00,,,0.00,Wunderground v.1.15,2013-02-17 08:25:00,
2013-02-17 03:31:00,25.4,23.1,29.58,WNW,284,4.0,9.0,91,0.00,,,0.00,Wunderground v.1.15,2013-02-17 08:31:00,
2013-02-17 03:36:00,25.1,22.8,29.57,NE,56,5.0,9.0,91,0.00,,,0.00,Wunderground v.1.15,2013-02-17 08:36:00,
2013-02-17 03:42:00,24.8,22.3,29.57,NNE,14,6.0,10.0,90,0.00,,,0.00,Wunderground v.1.15,2013-02-17 08:42:00,
2013-02-17 03:48:00,24.6,22.1,29.57,NE,36,5.0,12.0,90,0.00,,,0.00,Wunderground v.1.15,2013-02-17 08:48:00,
2013-02-17 03:54:00,24.3,21.8,29.56,WSW,240,5.0,9.0,90,0.00,,,0.00,Wunderground v.1.15,2013-02-17 08:54:00,
2013-02-17 03:59:00,24.2,21.7,29.57,North,8,4.0,9.0,90,0.00,,,0.00,Wunderground v.1.15,2013-02-17 08:59:00,
2013-02-17 04:05:00,23.9,21.1,29.56,West,276,5.0,12.0,89,0.00,,,0.00,Wunderground v.1.15,2013-02-17 09:05:00,
2013-02-17 04:10:00,23.8,21.3,29.56,NNW,331,5.0,9.0,90,0.00,,,0.00,Wunderground v.1.15,2013-02-17 09:10:00,
2013-02-17 04:15:00,23.7,21.2,29.57,NNE,24,5.0,9.0,90,0.00,,,0.00,Wunderground v.1.15,2013-02-17 09:15:00,
2013-02-17 04:21:00,23.5,21.0,29.56,NNE,20,6.0,7.0,90,0.00,,,0.00,Wunderground v.1.15,2013-02-17 09:21:00,
2013-02-17 04:26:00,23.3,20.8,29.56,NE,54,6.0,9.0,90,0.00,,,0.00,Wunderground v.1.15,2013-02-17 09:26:00,
2013-02-17 04:31:00,23.2,20.7,29.55,North,349,7.0,7.0,90,0.00,,,0.00,Wunderground v.1.15,2013-02-17 09:31:00,
2013-02-17 04:37:00,23.0,20.5,29.56,North,353,6.0,13.0,90,0.00,,,0.00,Wunderground v.1.15,2013-02-17 09:37:00,
2013-02-17 04:42:00,22.9,20.4,29.56,WNW,282,6.0,9.0,90,0.00,,,0.00,Wunderground v.1.15,2013-02-17 09:42:00,
2013-02-17 04:48:00,22.8,20.6,29.55,ENE,58,5.0,9.0,91,0.00,,,0.00,Wunderground v.1.15,2013-02-17 09:48:00,
2013-02-17 04:53:00,22.7,20.5,29.55,North,11,5.0,10.0,91,0.00,,,0.00,Wunderground v.1.15,2013-02-17 09:53:00,
2013-02-17 04:59:00,22.6,20.4,29.54,WNW,302,5.0,10.0,91,0.00,,,0.00,Wunderground v.1.15,2013-02-17 09:59:00,
2013-02-17 05:04:00,22.5,20.3,29.54,NNE,16,6.0,13.0,91,0.00,,,0.00,Wunderground v.1.15,2013-02-17 10:04:00,
2013-02-17 05:10:00,22.3,20.1,29.54,NW,316,7.0,9.0,91,0.00,,,0.00,Wunderground v.1.15,2013-02-17 10:10:00,
2013-02-17 05:15:00,22.2,20.2,29.54,NW,307,6.0,9.0,92,0.00,,,0.00,Wunderground v.1.15,2013-02-17 10:15:00,
2013-02-17 05:20:00,22.1,20.1,29.53,NNE,23,5.0,9.0,92,0.00,,,0.00,Wunderground v.1.15,2013-02-17 10:20:00,
2013-02-17 05:26:00,22.1,20.1,29.52,NE,49,5.0,9.0,92,0.00,,,0.00,Wunderground v.1.15,2013-02-17 10:26:00,
2013-02-17 05:32:00,22.0,20.0,29.52,North,356,6.0,9.0,92,0.00,,,0.00,Wunderground v.1.15,2013-02-17 10:32:00,
2013-02-17 05:37:00,21.9,19.9,29.52,West,262,5.0,9.0,92,0.00,,,0.00,Wunderground v.1.15,2013-02-17 10:37:00,
2013-02-17 05:43:00,21.8,19.8,29.51,NNE,32,5.0,13.0,92,0.00,,,0.00,Wunderground v.1.15,2013-02-17 10:43:00,
2013-02-17 05:48:00,21.6,19.6,29.51,West,259,6.0,13.0,92,0.00,,,0.00,Wunderground v.1.15,2013-02-17 10:48:00,
2013-02-17 05:53:00,21.5,19.5,29.51,North,356,5.0,9.0,92,0.00,,,0.00,Wunderground v.1.15,2013-02-17 10:53:00,
2013-02-17 05:58:00,21.5,19.5,29.51,NNW,339,5.0,12.0,92,0.00,,,0.00,Wunderground v.1.15,2013-02-17 10:58:00,
2013-02-17 06:04:00,21.3,19.3,29.51,NE,50,5.0,10.0,92,0.00,,,0.00,Wunderground v.1.15,2013-02-17 11:04:00,
2013-02-17 06:10:00,21.2,19.2,29.50,NNW,347,6.0,9.0,92,0.00,,,0.00,Wunderground v.1.15,2013-02-17 11:10:00,
2013-02-17 06:15:00,21.1,19.1,29.50,NE,41,6.0,9.0,92,0.00,,,0.00,Wunderground v.1.15,2013-02-17 11:15:00,
2013-02-17 06:21:00,21.0,19.0,29.50,NW,308,5.0,9.0,92,0.00,,,0.00,Wunderground v.1.15,2013-02-17 11:21:00,
2013-02-17 06:26:00,20.9,19.2,29.50,WNW,297,4.0,11.0,93,0.00,,,0.00,Wunderground v.1.15,2013-02-17 11:26:00,
2013-02-17 06:31:00,20.8,19.1,29.50,NNE,32,6.0,9.0,93,0.00,,,0.00,Wunderground v.1.15,2013-02-17 11:31:00,
2013-02-17 06:36:00,20.7,19.0,29.50,North,349,5.0,9.0,93,0.00,,,0.00,Wunderground v.1.15,2013-02-17 11:36:00,
2013-02-17 06:41:00,20.6,18.9,29.49,NNE,16,5.0,9.0,93,0.00,,,0.00,Wunderground v.1.15,2013-02-17 11:41:00,
2013-02-17 06:46:00,20.5,18.8,29.49,NNE,16,6.0,12.0,93,0.00,,,0.00,Wunderground v.1.15,2013-02-17 11:46:00,
2013-02-17 06:51:00,20.4,18.4,29.49,ENE,64,6.0,9.0,92,0.00,,,0.00,Wunderground v.1.15,2013-02-17 11:51:00,
2013-02-17 06:57:00,20.3,18.3,29.48,WNW,288,6.0,11.0,92,0.00,,,0.00,Wunderground v.1.15,2013-02-17 11:57:00,
2013-02-17 07:03:00,20.2,18.2,29.48,NNE,23,6.0,9.0,92,0.00,,,0.00,Wunderground v.1.15,2013-02-17 12:03:00,
2013-02-17 07:08:00,20.1,18.1,29.48,NW,308,7.0,13.0,92,0.00,,,0.00,Wunderground v.1.15,2013-02-17 12:08:00,
2013-02-17 07:13:00,20.0,18.1,29.48,NW,321,7.0,9.0,92,0.00,,,0.00,Wunderground v.1.15,2013-02-17 12:13:00,
2013-02-17 07:18:00,19.9,18.0,29.48,NNW,333,6.0,9.0,92,0.00,,,0.00,Wunderground v.1.15,2013-02-17 12:18:00,
2013-02-17 07:24:00,19.9,18.0,29.47,North,4,5.0,19.0,92,0.00,,,0.00,Wunderground v.1.15,2013-02-17 12:24:00,
2013-02-17 07:29:00,19.9,18.0,29.47,NNE,24,7.0,19.0,92,0.00,,,0.00,Wunderground v.1.15,2013-02-17 12:29:00,
2013-02-17 07:35:00,19.8,17.9,29.48,NNE,30,7.0,9.0,92,0.00,,,0.00,Wunderground v.1.15,2013-02-17 12:35:00,
2013-02-17 07:40:00,19.9,18.0,29.47,WNW,291,6.0,13.0,92,0.00,,,0.00,Wunderground v.1.15,2013-02-17 12:40:00,
2013-02-17 07:46:00,19.8,17.9,29.47,NNW,335,7.0,7.0,92,0.00,,,0.00,Wunderground v.1.15,2013-02-17 12:46:00,
2013-02-17 07:52:00,19.9,18.0,29.47,NW,318,6.0,12.0,92,0.00,,,0.00,Wunderground v.1.15,2013-02-17 12:52:00,
2013-02-17 07:58:00,19.9,17.7,29.47,NW,312,6.0,6.0,91,0.00,,,0.00,Wunderground v.1.15,2013-02-17 12:58:00,
2013-02-17 08:03:00,19.9,17.7,29.46,NW,316,6.0,6.0,91,0.00,,,0.00,Wunderground v.1.15,2013-02-17 13:03:00,
2013-02-17 08:08:00,19.9,17.7,29.46,North,360,6.0,10.0,91,0.00,,,0.00,Wunderground v.1.15,2013-02-17 13:08:00,
2013-02-17 08:13:00,19.9,17.7,29.46,NNE,16,6.0,10.0,91,0.00,,,0.00,Wunderground v.1.15,2013-02-17 13:13:00,
2013-02-17 08:19:00,19.9,17.4,29.46,North,359,6.0,10.0,90,0.00,,,0.00,Wunderground v.1.15,2013-02-17 13:19:00,
2013-02-17 08:24:00,19.9,17.4,29.45,North,5,6.0,6.0,90,0.00,,,0.00,Wunderground v.1.15,2013-02-17 13:24:00,
2013-02-17 08:30:00,19.9,17.4,29.45,NNW,340,6.0,6.0,90,0.00,,,0.00,Wunderground v.1.15,2013-02-17 13:30:00,
2013-02-17 08:36:00,20.0,17.3,29.45,NE,44,7.0,16.0,89,0.00,,,0.00,Wunderground v.1.15,2013-02-17 13:36:00,
2013-02-17 08:42:00,20.1,17.1,29.44,East,86,8.0,10.0,88,0.00,,,0.00,Wunderground v.1.15,2013-02-17 13:42:00,
2013-02-17 08:48:00,20.2,17.0,29.44,WNW,297,7.0,16.0,87,0.00,,,0.00,Wunderground v.1.15,2013-02-17 13:48:00,
2013-02-17 08:54:00,20.4,16.9,29.44,ENE,57,8.0,16.0,86,0.00,,,0.00,Wunderground v.1.15,2013-02-17 13:54:00,
2013-02-17 09:00:00,20.7,16.9,29.44,WNW,295,6.0,6.0,85,0.00,,,0.00,Wunderground v.1.15,2013-02-17 14:00:00,
2013-02-17 09:06:00,21.0,16.6,29.44,North,358,6.0,16.0,83,0.00,,,0.00,Wunderground v.1.15,2013-02-17 14:06:00,
2013-02-17 09:11:00,21.3,16.7,29.43,SW,234,6.0,16.0,82,0.00,,,0.00,Wunderground v.1.15,2013-02-17 14:11:00,
2013-02-17 09:16:00,21.7,16.8,29.43,North,359,4.0,16.0,81,0.00,,,0.00,Wunderground v.1.15,2013-02-17 14:16:00,
2013-02-17 09:21:00,22.0,15.6,29.43,North,351,5.0,16.0,76,0.00,,,0.00,Wunderground v.1.15,2013-02-17 14:21:00,
2013-02-17 09:27:00,22.3,15.3,29.43,NW,324,5.0,16.0,74,0.00,,,0.00,Wunderground v.1.15,2013-02-17 14:27:00,
2013-02-17 09:32:00,22.6,14.6,29.43,North,9,5.0,16.0,71,0.00,,,0.00,Wunderground v.1.15,2013-02-17 14:32:00,
2013-02-17 09:37:00,22.8,14.1,29.43,SW,235,5.0,16.0,69,0.00,,,0.00,Wunderground v.1.15,2013-02-17 14:37:00,
2013-02-17 09:43:00,22.8,12.8,29.43,NE,51,7.0,16.0,65,0.00,,,0.00,Wunderground v.1.15,2013-02-17 14:43:00,
2013-02-17 09:48:00,22.9,12.5,29.44,WNW,286,7.0,16.0,64,0.00,,,0.00,Wunderground v.1.15,2013-02-17 14:48:00,
2013-02-17 09:54:00,23.1,12.4,29.43,NNE,12,5.0,16.0,63,0.00,,,0.00,Wunderground v.1.15,2013-02-17 14:54:00,
2013-02-17 10:00:00,22.9,11.4,29.43,West,270,6.0,6.0,61,0.00,,,0.00,Wunderground v.1.15,2013-02-17 15:00:00,
2013-02-17 10:05:00,22.8,11.0,29.43,NW,319,8.0,17.0,60,0.00,,,0.00,Wunderground v.1.15,2013-02-17 15:05:00,
2013-02-17 10:10:00,22.9,10.7,29.43,NNE,27,8.0,19.0,59,0.00,,,0.00,Wunderground v.1.15,2013-02-17 15:10:00,
2013-02-17 10:16:00,23.0,10.8,29.43,ENE,60,7.0,19.0,59,0.00,,,0.00,Wunderground v.1.15,2013-02-17 15:16:00,
2013-02-17 10:22:00,23.2,10.6,29.43,NW,323,6.0,16.0,58,0.00,,,0.00,Wunderground v.1.15,2013-02-17 15:22:00,
2013-02-17 10:27:00,23.4,10.4,29.43,North,8,8.0,16.0,57,0.00,,,0.00,Wunderground v.1.15,2013-02-17 15:27:00,
2013-02-17 10:33:00,23.7,10.3,29.43,West,267,6.0,16.0,56,0.00,,,0.00,Wunderground v.1.15,2013-02-17 15:33:00,
2013-02-17 10:38:00,23.8,10.4,29.43,NNW,333,6.0,16.0,56,0.00,,,0.00,Wunderground v.1.15,2013-02-17 15:38:00,
2013-02-17 10:43:00,23.8,10.0,29.44,WNW,284,7.0,17.0,55,0.00,,,0.00,Wunderground v.1.15,2013-02-17 15:43:00,
2013-02-17 10:49:00,24.0,9.7,29.44,SW,226,7.0,17.0,54,0.00,,,0.00,Wunderground v.1.15,2013-02-17 15:49:00,
2013-02-17 10:54:00,24.2,9.5,29.44,West,276,6.0,16.0,53,0.00,,,0.00,Wunderground v.1.15,2013-02-17 15:54:00,
2013-02-17 11:00:00,24.2,9.1,29.44,WNW,295,7.0,16.0,52,0.00,,,0.00,Wunderground v.1.15,2013-02-17 16:00:00,
2013-02-17 11:06:00,24.3,8.7,29.44,NNE,13,7.0,16.0,51,0.00,,,0.00,Wunderground v.1.15,2013-02-17 16:06:00,
2013-02-17 11:12:00,24.5,8.9,29.44,WNW,295,7.0,9.0,51,0.00,,,0.00,Wunderground v.1.15,2013-02-17 16:12:00,
2013-02-17 11:17:00,24.6,8.6,29.45,North,11,7.0,14.0,50,0.00,,,0.00,Wunderground v.1.15,2013-02-17 16:17:00,
2013-02-17 11:23:00,24.9,8.9,29.44,NNW,347,7.0,8.0,50,0.00,,,0.00,Wunderground v.1.15,2013-02-17 16:23:00,
2013-02-17 11:29:00,25.0,8.5,29.44,WSW,245,6.0,13.0,49,0.00,,,0.00,Wunderground v.1.15,2013-02-17 16:29:00,
2013-02-17 11:34:00,25.0,8.0,29.44,WSW,253,6.0,12.0,48,0.00,,,0.00,Wunderground v.1.15,2013-02-17 16:34:00,
2013-02-17 11:40:00,25.1,8.6,29.44,NNE,22,7.0,10.0,49,0.00,,,0.00,Wunderground v.1.15,2013-02-17 16:40:00,
2013-02-17 11:46:00,25.3,8.3,29.44,NNE,13,6.0,10.0,48,0.00,,,0.00,Wunderground v.1.15,2013-02-17 16:46:00,
2013-02-17 11:51:00,25.7,7.7,29.44,West,276,5.0,7.0,46,0.00,,,0.00,Wunderground v.1.15,2013-02-17 16:51:00,
2013-02-17 11:56:00,25.8,8.3,29.44,WSW,255,5.0,7.0,47,0.00,,,0.00,Wunderground v.1.15,2013-02-17 16:56:00,
2013-02-17 12:02:00,25.9,7.9,29.44,WSW,242,6.0,23.0,46,0.00,,,0.00,Wunderground v.1.15,2013-02-17 17:02:00,
2013-02-17 12:07:00,26.2,8.2,29.44,WSW,254,5.0,23.0,46,0.00,,,0.00,Wunderground v.1.15,2013-02-17 17:07:00,
2013-02-17 12:12:00,26.2,8.2,29.45,NNW,347,6.0,23.0,46,0.00,,,0.00,Wunderground v.1.15,2013-02-17 17:12:00,
2013-02-17 12:18:00,26.4,8.4,29.44,NW,319,6.0,23.0,46,0.00,,,0.00,Wunderground v.1.15,2013-02-17 17:18:00,
2013-02-17 12:23:00,26.5,8.5,29.45,WNW,288,5.0,23.0,46,0.00,,,0.00,Wunderground v.1.15,2013-02-17 17:23:00,
2013-02-17 12:28:00,26.5,9.0,29.45,West,271,5.0,23.0,47,0.00,,,0.00,Wunderground v.1.15,2013-02-17 17:28:00,
2013-02-17 12:34:00,26.3,8.3,29.45,WNW,293,6.0,23.0,46,0.00,,,0.00,Wunderground v.1.15,2013-02-17 17:34:00,
2013-02-17 12:39:00,26.3,8.8,29.45,NW,319,5.0,23.0,47,0.00,,,0.00,Wunderground v.1.15,2013-02-17 17:39:00,
2013-02-17 12:44:00,26.1,8.1,29.45,West,280,7.0,23.0,46,0.00,,,0.00,Wunderground v.1.15,2013-02-17 17:44:00,
2013-02-17 12:50:00,25.8,7.8,29.45,West,260,8.0,23.0,46,0.00,,,0.00,Wunderground v.1.15,2013-02-17 17:50:00,
2013-02-17 12:55:00,25.7,8.2,29.45,North,4,8.0,23.0,47,0.00,,,0.00,Wunderground v.1.15,2013-02-17 17:55:00,
2013-02-17 13:00:00,25.9,7.9,29.46,NNE,32,6.0,6.0,46,0.00,,,0.00,Wunderground v.1.15,2013-02-17 18:00:00,
2013-02-17 13:06:00,25.9,8.4,29.46,North,11,5.0,23.0,47,0.00,,,0.00,Wunderground v.1.15,2013-02-17 18:06:00,
2013-02-17 13:11:00,26.0,8.5,29.47,West,280,5.0,20.0,47,0.00,,,0.00,Wunderground v.1.15,2013-02-17 18:11:00,
2013-02-17 13:16:00,25.9,7.9,29.47,SSW,212,6.0,23.0,46,0.00,,,0.00,Wunderground v.1.15,2013-02-17 18:16:00,
2013-02-17 13:22:00,25.8,8.3,29.47,ENE,77,7.0,23.0,47,0.00,,,0.00,Wunderground v.1.15,2013-02-17 18:22:00,
2013-02-17 13:27:00,25.8,7.8,29.47,WNW,303,7.0,23.0,46,0.00,,,0.00,Wunderground v.1.15,2013-02-17 18:27:00,
2013-02-17 13:33:00,26.0,7.5,29.48,WNW,294,6.0,23.0,45,0.00,,,0.00,Wunderground v.1.15,2013-02-17 18:33:00,
2013-02-17 13:39:00,25.9,7.4,29.49,WSW,240,7.0,23.0,45,0.00,,,0.00,Wunderground v.1.15,2013-02-17 18:39:00,
2013-02-17 13:44:00,25.8,7.4,29.48,NW,319,9.0,23.0,45,0.00,,,0.00,Wunderground v.1.15,2013-02-17 18:44:00,
2013-02-17 13:50:00,25.9,7.4,29.48,North,354,9.0,9.0,45,0.00,,,0.00,Wunderground v.1.15,2013-02-17 18:50:00,
2013-02-17 13:56:00,26.2,7.2,29.48,North,360,7.0,23.0,44,0.00,,,0.00,Wunderground v.1.15,2013-02-17 18:56:00,
2013-02-17 14:01:00,26.2,7.2,29.49,NW,311,7.0,8.0,44,0.00,,,0.00,Wunderground v.1.15,2013-02-17 19:01:00,
2013-02-17 14:07:00,26.2,7.2,29.48,SW,218,9.0,23.0,44,0.00,,,0.00,Wunderground v.1.15,2013-02-17 19:07:00,
2013-02-17 14:13:00,26.3,6.8,29.48,NW,318,8.0,23.0,43,0.00,,,0.00,Wunderground v.1.15,2013-02-17 19:13:00,
2013-02-17 14:18:00,26.5,7.0,29.48,SW,233,7.0,23.0,43,0.00,,,0.00,Wunderground v.1.15,2013-02-17 19:18:00,
2013-02-17 14:23:00,26.6,6.0,29.48,SSE,149,8.0,23.0,41,0.00,,,0.00,Wunderground v.1.15,2013-02-17 19:23:00,
2013-02-17 14:28:00,26.5,7.0,29.49,NE,34,8.0,23.0,43,0.00,,,0.00,Wunderground v.1.15,2013-02-17 19:28:00,
2013-02-17 14:33:00,26.6,6.6,29.49,NNE,12,8.0,23.0,42,0.00,,,0.00,Wunderground v.1.15,2013-02-17 19:33:00,
2013-02-17 14:39:00,26.6,7.6,29.49,NW,311,8.0,23.0,44,0.00,,,0.00,Wunderground v.1.15,2013-02-17 19:39:00,
2013-02-17 14:45:00,26.8,6.7,29.49,SSE,166,7.0,23.0,42,0.00,,,0.00,Wunderground v.1.15,2013-02-17 19:45:00,
2013-02-17 14:51:00,26.9,6.3,29.49,SW,235,6.0,23.0,41,0.00,,,0.00,Wunderground v.1.15,2013-02-17 19:51:00,
2013-02-17 14:56:00,27.0,6.4,29.50,NNW,342,7.0,23.0,41,0.00,,,0.00,Wunderground v.1.15,2013-02-17 19:56:00,
2013-02-17 15:01:00,27.3,6.7,29.50,NNE,20,5.0,23.0,41,0.00,,,0.00,Wunderground v.1.15,2013-02-17 20:01:00,
2013-02-17 15:07:00,27.3,6.7,29.50,South,191,7.0,23.0,41,0.00,,,0.00,Wunderground v.1.15,2013-02-17 20:07:00,
2013-02-17 15:12:00,27.4,6.2,29.50,NW,310,7.0,23.0,40,0.00,,,0.00,Wunderground v.1.15,2013-02-17 20:12:00,
2013-02-17 15:17:00,27.7,5.9,29.50,NE,39,6.0,23.0,39,0.00,,,0.00,Wunderground v.1.15,2013-02-17 20:17:00,
2013-02-17 15:22:00,27.7,5.9,29.50,North,349,6.0,23.0,39,0.00,,,0.00,Wunderground v.1.15,2013-02-17 20:22:00,
2013-02-17 15:28:00,28.0,6.2,29.50,WSW,245,6.0,23.0,39,0.00,,,0.00,Wunderground v.1.15,2013-02-17 20:28:00,
2013-02-17 15:34:00,28.1,5.7,29.51,NNW,329,6.0,23.0,38,0.00,,,0.00,Wunderground v.1.15,2013-02-17 20:34:00,
2013-02-17 15:39:00,28.2,6.9,29.51,WNW,287,6.0,23.0,40,0.00,,,0.00,Wunderground v.1.15,2013-02-17 20:39:00,
2013-02-17 15:45:00,28.1,6.3,29.52,WNW,290,6.0,23.0,39,0.00,,,0.00,Wunderground v.1.15,2013-02-17 20:45:00,
2013-02-17 15:50:00,27.8,6.6,29.52,West,277,6.0,23.0,40,0.00,,,0.00,Wunderground v.1.15,2013-02-17 20:50:00,
2013-02-17 15:56:00,27.6,6.4,29.52,WNW,284,7.0,23.0,40,0.00,,,0.00,Wunderground v.1.15,2013-02-17 20:56:00,
2013-02-17 16:01:00,27.3,6.1,29.52,West,280,7.0,23.0,40,0.00,,,0.00,Wunderground v.1.15,2013-02-17 21:01:00,
2013-02-17 16:07:00,27.0,5.8,29.53,WSW,246,8.0,23.0,40,0.00,,,0.00,Wunderground v.1.15,2013-02-17 21:07:00,
2013-02-17 16:13:00,26.6,7.1,29.53,SW,221,8.0,23.0,43,0.00,,,0.00,Wunderground v.1.15,2013-02-17 21:13:00,
2013-02-17 16:18:00,26.5,6.5,29.53,WSW,246,6.0,23.0,42,0.00,,,0.00,Wunderground v.1.15,2013-02-17 21:18:00,
2013-02-17 16:23:00,26.2,5.1,29.54,WNW,297,6.0,16.0,40,0.00,,,0.00,Wunderground v.1.15,2013-02-17 21:23:00,
2013-02-17 16:29:00,25.8,5.3,29.54,ENE,60,7.0,23.0,41,0.00,,,0.00,Wunderground v.1.15,2013-02-17 21:29:00,
2013-02-17 16:35:00,25.6,5.1,29.54,WNW,284,7.0,23.0,41,0.00,,,0.00,Wunderground v.1.15,2013-02-17 21:35:00,
2013-02-17 16:41:00,25.4,5.5,29.55,SW,232,8.0,9.0,42,0.00,,,0.00,Wunderground v.1.15,2013-02-17 21:41:00,
2013-02-17 16:47:00,25.2,5.3,29.55,North,360,8.0,23.0,42,0.00,,,0.00,Wunderground v.1.15,2013-02-17 21:47:00,
2013-02-17 16:53:00,25.1,4.7,29.55,WSW,242,8.0,23.0,41,0.00,,,0.00,Wunderground v.1.15,2013-02-17 21:53:00,
2013-02-17 16:58:00,25.0,4.6,29.56,WSW,248,9.0,23.0,41,0.00,,,0.00,Wunderground v.1.15,2013-02-17 21:58:00,
2013-02-17 17:03:00,24.8,4.4,29.57,WNW,290,8.0,23.0,41,0.00,,,0.00,Wunderground v.1.15,2013-02-17 22:03:00,
2013-02-17 17:08:00,24.7,4.3,29.56,West,274,8.0,23.0,41,0.00,,,0.00,Wunderground v.1.15,2013-02-17 22:08:00,
2013-02-17 17:13:00,24.5,4.1,29.57,WNW,292,7.0,23.0,41,0.00,,,0.00,Wunderground v.1.15,2013-02-17 22:13:00,
2013-02-17 17:19:00,24.4,4.0,29.57,West,274,8.0,23.0,41,0.00,,,0.00,Wunderground v.1.15,2013-02-17 22:19:00,
2013-02-17 17:25:00,24.2,3.9,29.58,WSW,250,7.0,23.0,41,0.00,,,0.00,Wunderground v.1.15,2013-02-17 22:25:00,
2013-02-17 17:30:00,24.2,3.9,29.58,WNW,290,7.0,23.0,41,0.00,,,0.00,Wunderground v.1.15,2013-02-17 22:30:00,
2013-02-17 17:35:00,24.1,3.8,29.58,NNE,13,7.0,23.0,41,0.00,,,0.00,Wunderground v.1.15,2013-02-17 22:35:00,
2013-02-17 17:40:00,24.1,4.3,29.59,NNW,336,7.0,23.0,42,0.00,,,0.00,Wunderground v.1.15,2013-02-17 22:40:00,
2013-02-17 17:46:00,23.9,4.1,29.59,NNW,340,8.0,23.0,42,0.00,,,0.00,Wunderground v.1.15,2013-02-17 22:46:00,
2013-02-17 17:51:00,23.8,5.0,29.60,WNW,282,9.0,12.0,44,0.00,,,0.00,Wunderground v.1.15,2013-02-17 22:51:00,
2013-02-17 17:56:00,23.7,3.9,29.60,SW,218,8.0,23.0,42,0.00,,,0.00,Wunderground v.1.15,2013-02-17 22:56:00,
2013-02-17 18:02:00,23.7,3.9,29.61,WSW,250,7.0,13.0,42,0.00,,,0.00,Wunderground v.1.15,2013-02-17 23:02:00,
2013-02-17 18:07:00,23.6,4.3,29.61,NW,311,6.0,10.0,43,0.00,,,0.00,Wunderground v.1.15,2013-02-17 23:07:00,
2013-02-17 18:13:00,23.4,4.7,29.61,NW,313,6.0,11.0,44,0.00,,,0.00,Wunderground v.1.15,2013-02-17 23:13:00,
2013-02-17 18:18:00,23.3,4.6,29.61,West,278,7.0,13.0,44,0.00,,,0.00,Wunderground v.1.15,2013-02-17 23:18:00,
2013-02-17 18:23:00,23.1,4.4,29.61,NNW,337,7.0,14.0,44,0.00,,,0.00,Wunderground v.1.15,2013-02-17 23:23:00,
2013-02-17 18:29:00,22.9,4.7,29.61,WNW,292,7.0,7.0,45,0.00,,,0.00,Wunderground v.1.15,2013-02-17 23:29:00,
2013-02-17 18:34:00,22.8,4.1,29.62,West,274,7.0,13.0,44,0.00,,,0.00,Wunderground v.1.15,2013-02-17 23:34:00,
2013-02-17 18:39:00,22.6,4.4,29.63,SW,232,6.0,6.0,45,0.00,,,0.00,Wunderground v.1.15,2013-02-17 23:39:00,
2013-02-17 18:44:00,22.5,4.3,29.62,SW,229,7.0,14.0,45,0.00,,,0.00,Wunderground v.1.15,2013-02-17 23:44:00,
2013-02-17 18:49:00,22.4,4.2,29.63,WSW,245,8.0,8.0,45,0.00,,,0.00,Wunderground v.1.15,2013-02-17 23:49:00,
2013-02-17 18:55:00,22.3,4.1,29.63,NNE,25,6.0,8.0,45,0.00,,,0.00,Wunderground v.1.15,2013-02-17 23:55:00,
2013-02-17 19:00:00,22.2,4.5,29.63,West,281,7.0,7.0,46,0.00,,,0.00,Wunderground v.1.15,2013-02-18 00:00:00,
2013-02-17 19:05:00,22.0,5.3,29.64,NW,326,8.0,13.0,48,0.00,,,0.00,Wunderground v.1.15,2013-02-18 00:05:00,
2013-02-17 19:11:00,21.9,4.3,29.64,North,354,8.0,15.0,46,0.00,,,0.00,Wunderground v.1.15,2013-02-18 00:11:00,
2013-02-17 19:16:00,21.8,4.6,29.63,East,86,7.0,15.0,47,0.00,,,0.00,Wunderground v.1.15,2013-02-18 00:16:00,
2013-02-17 19:21:00,21.7,4.1,29.64,WNW,299,7.0,15.0,46,0.00,,,0.00,Wunderground v.1.15,2013-02-18 00:21:00,
2013-02-17 19:27:00,21.7,4.1,29.64,WNW,295,6.0,15.0,46,0.00,,,0.00,Wunderground v.1.15,2013-02-18 00:27:00,
2013-02-17 19:33:00,21.4,4.3,29.64,NW,307,6.0,15.0,47,0.00,,,0.00,Wunderground v.1.15,2013-02-18 00:33:00,
2013-02-17 19:39:00,21.2,4.1,29.64,WSW,240,6.0,15.0,47,0.00,,,0.00,Wunderground v.1.15,2013-02-18 00:39:00,
2013-02-17 19:45:00,21.1,4.0,29.65,WNW,297,6.0,15.0,47,0.00,,,0.00,Wunderground v.1.15,2013-02-18 00:45:00,
2013-02-17 19:50:00,21.0,3.9,29.65,North,9,8.0,8.0,47,0.00,,,0.00,Wunderground v.1.15,2013-02-18 00:50:00,
2013-02-17 19:56:00,20.8,4.2,29.65,West,259,9.0,19.0,48,0.00,,,0.00,Wunderground v.1.15,2013-02-18 00:56:00,
2013-02-17 20:01:00,20.7,3.6,29.66,NNE,23,8.0,15.0,47,0.00,,,0.00,Wunderground v.1.15,2013-02-18 01:01:00,
2013-02-17 20:07:00,20.5,3.9,29.66,WSW,245,8.0,15.0,48,0.00,,,0.00,Wunderground v.1.15,2013-02-18 01:07:00,
2013-02-17 20:17:00,20.4,3.8,29.66,NNW,338,7.0,16.0,48,0.00,,,0.00,Wunderground v.1.15,2013-02-18 01:17:00,
2013-02-17 20:23:00,20.3,3.7,29.66,West,274,8.0,16.0,48,0.00,,,0.00,Wunderground v.1.15,2013-02-18 01:23:00,
2013-02-17 20:29:00,20.2,3.2,29.67,West,280,7.0,13.0,47,0.00,,,0.00,Wunderground v.1.15,2013-02-18 01:29:00,
2013-02-17 20:35:00,20.1,3.5,29.66,North,357,7.0,13.0,48,0.00,,,0.00,Wunderground v.1.15,2013-02-18 01:35:00,
2013-02-17 20:41:00,20.0,3.9,29.66,WNW,291,7.0,10.0,49,0.00,,,0.00,Wunderground v.1.15,2013-02-18 01:41:00,
2013-02-17 20:46:00,19.9,3.3,29.67,West,267,8.0,10.0,48,0.00,,,0.00,Wunderground v.1.15,2013-02-18 01:46:00,
2013-02-17 20:52:00,19.8,3.7,29.66,WSW,243,8.0,9.0,49,0.00,,,0.00,Wunderground v.1.15,2013-02-18 01:52:00,
2013-02-17 20:57:00,19.6,3.9,29.67,SW,234,7.0,7.0,50,0.00,,,0.00,Wunderground v.1.15,2013-02-18 01:57:00,
2013-02-17 21:03:00,19.6,3.5,29.67,WSW,255,5.0,6.0,49,0.00,,,0.00,Wunderground v.1.15,2013-02-18 02:03:00,
2013-02-17 21:08:00,19.5,3.4,29.67,NE,51,4.0,6.0,49,0.00,,,0.00,Wunderground v.1.15,2013-02-18 02:08:00,
2013-02-17 21:14:00,19.4,3.3,29.67,WNW,286,6.0,14.0,49,0.00,,,0.00,Wunderground v.1.15,2013-02-18 02:14:00,
2013-02-17 21:19:00,19.2,3.1,29.67,WNW,302,6.0,15.0,49,0.00,,,0.00,Wunderground v.1.15,2013-02-18 02:19:00,
2013-02-17 21:25:00,19.1,3.5,29.68,WNW,285,5.0,15.0,50,0.00,,,0.00,Wunderground v.1.15,2013-02-18 02:25:00,
2013-02-17 21:31:00,19.0,3.4,29.67,NNE,14,7.0,15.0,50,0.00,,,0.00,Wunderground v.1.15,2013-02-18 02:31:00,
2013-02-17 21:36:00,18.9,3.3,29.68,WSW,240,8.0,15.0,50,0.00,,,0.00,Wunderground v.1.15,2013-02-18 02:36:00,
2013-02-17 21:42:00,18.8,3.2,29.68,WNW,295,7.0,15.0,50,0.00,,,0.00,Wunderground v.1.15,2013-02-18 02:42:00,
2013-02-17 21:47:00,18.7,3.1,29.68,NNW,332,7.0,15.0,50,0.00,,,0.00,Wunderground v.1.15,2013-02-18 02:47:00,
2013-02-17 21:53:00,18.5,3.8,29.69,WNW,291,7.0,15.0,52,0.00,,,0.00,Wunderground v.1.15,2013-02-18 02:53:00,
2013-02-17 21:59:00,18.3,3.6,29.69,North,9,8.0,19.0,52,0.00,,,0.00,Wunderground v.1.15,2013-02-18 02:59:00,
2013-02-17 22:04:00,18.2,3.5,29.69,NW,304,7.0,15.0,52,0.00,,,0.00,Wunderground v.1.15,2013-02-18 03:04:00,
2013-02-17 22:10:00,18.1,3.8,29.70,NW,322,6.0,15.0,53,0.00,,,0.00,Wunderground v.1.15,2013-02-18 03:10:00,
2013-02-17 22:15:00,18.1,3.4,29.70,NW,319,5.0,15.0,52,0.00,,,0.00,Wunderground v.1.15,2013-02-18 03:15:00,
2013-02-17 22:21:00,17.9,3.2,29.70,NW,319,5.0,15.0,52,0.00,,,0.00,Wunderground v.1.15,2013-02-18 03:21:00,
2013-02-17 22:26:00,17.8,3.5,29.71,NW,305,6.0,15.0,53,0.00,,,0.00,Wunderground v.1.15,2013-02-18 03:26:00,
2013-02-17 22:32:00,17.7,3.4,29.71,ENE,63,5.0,15.0,53,0.00,,,0.00,Wunderground v.1.15,2013-02-18 03:32:00,
2013-02-17 22:37:00,17.6,3.8,29.71,NNW,334,5.0,15.0,54,0.00,,,0.00,Wunderground v.1.15,2013-02-18 03:37:00,
2013-02-17 22:43:00,17.5,3.7,29.71,NW,305,6.0,15.0,54,0.00,,,0.00,Wunderground v.1.15,2013-02-18 03:43:00,
2013-02-17 22:49:00,17.4,3.6,29.72,West,267,5.0,15.0,54,0.00,,,0.00,Wunderground v.1.15,2013-02-18 03:49:00,
2013-02-17 22:54:00,17.4,3.6,29.72,WNW,286,7.0,15.0,54,0.00,,,0.00,Wunderground v.1.15,2013-02-18 03:54:00,
2013-02-17 22:59:00,17.3,3.9,29.72,NW,305,7.0,15.0,55,0.00,,,0.00,Wunderground v.1.15,2013-02-18 03:59:00,
2013-02-17 23:05:00,17.2,3.4,29.72,WSW,240,5.0,15.0,54,0.00,,,0.00,Wunderground v.1.15,2013-02-18 04:05:00,
2013-02-17 23:11:00,17.1,3.3,29.73,SSW,197,5.0,8.0,54,0.00,,,0.00,Wunderground v.1.15,2013-02-18 04:11:00,
2013-02-17 23:16:00,17.0,3.2,29.72,NE,36,6.0,13.0,54,0.00,,,0.00,Wunderground v.1.15,2013-02-18 04:16:00,
2013-02-17 23:22:00,17.0,3.2,29.72,WNW,295,7.0,21.0,54,0.00,,,0.00,Wunderground v.1.15,2013-02-18 04:22:00,
2013-02-17 23:27:00,17.0,3.6,29.74,NW,310,8.0,21.0,55,0.00,,,0.00,Wunderground v.1.15,2013-02-18 04:27:00,
2013-02-17 23:32:00,16.9,3.1,29.74,WSW,257,8.0,8.0,54,0.00,,,0.00,Wunderground v.1.15,2013-02-18 04:32:00,
2013-02-17 23:38:00,16.8,3.0,29.74,NNE,13,6.0,9.0,54,0.00,,,0.00,Wunderground v.1.15,2013-02-18 04:38:00,
2013-02-17 23:43:00,16.7,2.9,29.75,West,273,4.0,6.0,54,0.00,,,0.00,Wunderground v.1.15,2013-02-18 04:43:00,
2013-02-17 23:49:00,16.7,2.9,29.74,West,274,4.0,10.0,54,0.00,,,0.00,Wunderground v.1.15,2013-02-18 04:49:00,
2013-02-17 23:54:00,16.6,3.2,29.75,NNE,12,5.0,12.0,55,0.00,,,0.00,Wunderground v.1.15,2013-02-18 04:54:00,